CAPE
2 8 10 10 6 1 0 0 0 0 2 0 4 4 10 0 0 0 0 0 0 0 0 0 0 0 0 0 4 46 291 231 336 208 282 259 237 126 73 49 8 8 16 49 15 28 2 17 84 51 45 372 801 649
3 0 0 5 5 2 0 0 0 1 2 0 4 4 6 0 0 0 0 0 0 0 0 0 0 0 0 0 0 0 111 83 99 188 73 94 132 137 143 121 17 29 13 39 30 23 2 2 420 283 258 759 1216 581
2 0 0 0 4 2 0 0 0 2 1 2 3 3 4 0 0 0 0 0 0 0 0 0 0 0 0 0 0 0 13 0 0 16 65 7 12 27 109 60 26 0 2 5 2 0 0 0 1 306 301 222 784 699
0 0 0 1 4 2 0 0 1 2 0 2 3 4 3 1 0 0 0 0 0 0 0 0 0 0 0 0 0 0 0 0 0 0 27 4 4 0 0 1 1 0 16 17 0 1 91 229 250 38 207 672 864 662
0 0 1 4 3 1 0 0 1 4 2 4 3 3 1 1 0 0 0 0 0 0 0 0 0 0 0 0 0 0 0 0 0 0 8 20 0 1 0 0 0 10 2 0 3 0 6 3 0 7 494 951 1015 791
0 0 0 1 3 0 0 0 4 2 2 4 3 2 1 0 0 0 0 0 0 0 0 0 0 0 0 0 0 0 0 0 0 0 0 0 4 15 5 2 0 0 0 0 0 0 0 0 0 11 424 182 248 318
0 0 0 0 5 6 0 2 3 2 2 2 3 1 2 0 0 0 0 0 0 0 0 0 0 0 0 0 0 0 0 0 0 0 0 0 0 0 0 0 3 0 0 0 0 0 0 0 0 2 50 1 17 9
0 0 0 0 0 0 2 2 2 2 2 0 1 2 0 0 0 0 0 0 0 0 0 0 0 0 0 0 0 0 0 0 0 0 0 0 0 0 0 0 0 0 0 0 0 0 0 0 0 9 20 13 19 4
0 0 0 0 0 4 3 2 2 1 0 2 1 0 0 0 0 0 0 0 0 0 0 0 0 0 0 0 0 0 0 0 0 0 0 0 0 0 0 0 0 0 0 0 0 0 0 0 0 0 0 0 0 0
0 0 0 0 0 1 2 2 1 0 1 0 0 0 0 0 0 0 0 0 0 0 0 0 0 0 0 0 0 0 0 0 0 0 0 0 0 0 0 0 0 0 0 0 0 0 0 0 0 0 0 0 0 0
0 0 0 0 0 1 1 1 0 1 0 0 0 0 5 0 0 0 0 0 0 0 0 0 0 0 0 0 0 0 0 0 0 0 0 0 0 0 0 0 0 0 0 0 0 0 1 0 0 0 0 0 0 0
0 0 0 1 2 1 1 0 0 0 0 0 0 0 0 0 1 3 0 0 0 0 0 0 0 0 0 0 4 0 0 0 3 0 0 0 0 19 4 0 0 0 0 0 0 0 2 1 0 0 0 0 0 0
0 0 0 0 2 2 0 0 0 0 0 0 0 11 9 1 11 1 0 0 0 0 0 0 0 0 0 0 2 10 5 4 0 5 8 154 139 0 0 9 3 0 0 0 0 0 1 0 0 0 0 0 0 0
3 1 0 1 2 0 0 1 0 0 0 0 1 1 0 0 0 0 0 0 0 0 0 0 0 0 0 0 1 25 1 1 5 5 11 200 56 28 16 5 15 0 0 0 2 7 0 0 0 0 0 0 0 0
1 2 2 2 2 0 1 0 0 0 0 0 0 0 0 0 0 0 0 0 0 0 0 0 0 0 0 9 6 5 16 17 10 9 62 150 64 47 13 0 0 0 0 0 0 0 0 0 0 0 0 0 0 0
2 2 1 1 1 1 1 0 0 0 0 0 0 0 0 0 0 0 0 2 1 2 0 0 5 6 3 8 7 8 16 3 6 67 109 44 26 7 0 5 0 0 0 0 0 0 0 0 0 0 0 0 0 0
0 0 1 1 2 1 0 0 0 0 0 0 0 0 0 0 0 3 3 15 5 19 13 0 6 11 9 4 7 11 4 8 37 59 85 43 32 41 42 25 7 0 0 0 0 0 0 0 0 0 0 0 0 0
1 1 1 2 1 1 0 0 0 0 0 0 0 0 0 0 2 1 1 0 1 5 12 17 8 7 7 0 11 60 54 58 38 9 1 1 12 25 14 0 0 0 0 0 0 0 0 0 0 0 0 0 0 0
1 2 1 0 0 0 0 0 0 0 0 0 0 0 0 1 0 0 0 0 0 0 6 4 5 9 11 3 27 31 18 17 16 34 34 120 92 15 0 0 0 0 0 0 0 0 0 0 0 0 0 0 0 0
3 2 1 0 0 0 0 0 0 0 0 0 0 0 0 0 0 0 0 0 0 5 6 4 0 0 17 8 12 15 6 36 31 0 0 43 34 0 0 0 0 0 0 0 0 0 0 0 0 0 0 0 0 0
0 1 0 0 0 0 0 0 0 0 0 0 0 0 0 0 0 0 0 0 0 0 6 3 4 9 5 16 9 15 69 60 19 3 0 0 21 27 9 5 0 0 7 2 8 10 13 11 0 0 0 4 0 1
0 0 0 0 0 0 0 0 0 0 0 0 0 0 0 0 0 0 0 0 0 0 0 2 11 8 0 46 5 3 32 14 2 0 2 8 14 11 19 39 23 17 8 6 0 5 17 12 0 4 13 2 0 0
0 0 0 0 0 0 0 0 0 0 0 0 0 0 0 0 0 0 0 0 0 0 0 16 42 27 40 40 46 22 10 3 0 0 0 1 13 15 11 1 48 76 84 76 41 24 21 9 0 16 22 5 0 0
0 0 0 0 0 0 0 0 0 0 0 0 0 0 0 0 0 0 0 0 0 0 0 0 40 34 14 56 63 66 33 11 0 0 0 0 0 2 7 23 27 36 67 50 66 70 38 12 0 0 0 0 0 0
0 0 0 0 0 0 0 0 0 0 0 0 0 0 0 0 0 0 0 6 11 0 0 0 3 1 0 0 0 0 0 0 0 0 0 0 0 0 0 0 0 9 23 36 23 30 43 24 8 3 0 0 0 4
0 0 0 0 0 0 0 0 0 0 0 0 0 0 0 0 1 7 26 18 0 0 0 0 0 0 0 0 0 0 1 6 0 0 0 0 0 1 0 2 4 7 6 0 6 13 28 34 16 2 0 0 1 6
0 0 0 0 0 0 0 0 0 1 1 0 0 0 0 0 0 18 24 20 26 18 11 8 1 4 13 22 22 16 4 18 14 18 12 1 0 0 0 4 8 4 4 3 3 9 23 29 19 0 0 0 0 6
0 0 0 0 0 0 0 0 1 1 0 0 0 0 0 3 14 30 31 4 0 2 17 27 14 9 17 24 27 15 13 5 7 6 7 0 0 0 0 0 0 0 0 0 0 0 1 0 0 0 0 0 0 0
0 0 0 0 0 0 0 0 10 9 1 7 4 5 1 0 0 0 0 0 0 2 0 4 5 1 0 0 0 0 0 10 24 24 16 0 0 0 0 0 0 0 0 0 0 0 0 0 0 0 0 0 0 0
0 0 0 0 0 0 0 0 0 0 0 0 0 0 0 0 0 3 2 1 0 0 0 0 0 0 0 0 0 0 0 0 4 4 10 2 0 6 9 8 0 0 0 0 0 0 0 0 0 0 0 0 0 0
0 0 0 0 0 0 0 0 0 0 0 0 0 0 0 0 11 2 0 0 16 12 12 6 0 0 0 0 0 0 11 12 15 16 7 5 7 9 8 20 20 2 0 0 0 0 0 0 0 0 0 2 1 1
0 0 0 0 0 0 0 0 0 0 0 0 0 0 12 8 2 0 2 27 31 20 0 0 0 0 0 0 0 5 9 11 12 9 27 12 7 0 0 7 26 26 6 4 0 0 0 0 0 0 0 0 0 1
0 0 0 0 0 0 0 0 5 19 17 14 10 2 2 0 1 1 21 23 19 15 13 12 10 16 3 2 0 3 6 0 0 0 0 0 0 0 0 8 20 20 24 8 6 1 7 10 8 1 11 4 4 8
CIN
-1 0 0 -3 -4 -2 0 -9 0 0 0 0 0 0 0 0 0 0 0 0 0 0 0 0 0 0 0 0 -210 -291 -228 -276 -195 -123 -137 -198 -168 -289 -268 -322 -247 -47 -148 -138 -227 -116 -34 -253 -176 -84 -152 -212 -120 -155
-3 0 -1 0 -4 -4 0 0 0 0 0 0 0 0 0 0 0 0 0 0 0 0 0 0 0 0 0 0 0 0 -296 -321 -353 -257 -347 -372 -237 -352 -239 -120 -474 -186 -287 -185 -199 -132 -119 -35 -186 -178 -255 -126 -117 -151
-5 -3 0 -3 -6 -4 0 0 0 0 0 0 0 0 0 0 0 0 0 0 0 0 0 0 0 0 0 0 0 0 -35 0 0 -471 -365 -87 -193 -423 -166 -200 -271 -67 -573 -293 -321 0 0 0 -6 -161 -154 -131 -92 -195
0 0 0 -3 -5 -5 0 0 0 0 0 0 0 0 0 0 0 0 0 0 0 0 0 0 0 0 0 0 0 0 0 0 0 -23 -306 -82 -62 0 0 -146 -154 -49 -495 -401 0 -142 -245 -153 -133 -217 -215 -168 -136 -192
0 0 -8 -4 -8 -5 0 0 0 0 0 0 0 0 0 0 0 0 0 0 0 0 0 0 0 0 0 0 0 0 0 0 0 -22 -238 -116 0 -155 0 0 0 -435 -133 0 -144 0 -239 -69 0 -125 -125 -112 -98 -129
0 0 -1 -9 -8 -11 0 0 0 0 0 0 0 0 0 0 0 0 0 0 0 0 0 0 0 0 0 0 0 0 0 0 0 0 -7 0 -8 -153 -142 -162 0 0 0 0 0 0 -10 0 0 -184 -98 -153 -185 -176
0 0 0 -1 -3 -3 0 0 0 0 0 0 0 0 0 0 0 0 0 0 0 0 0 0 0 0 0 0 0 0 0 0 0 0 0 0 0 0 0 0 -56 0 0 -41 0 0 0 0 0 -51 -140 -64 -293 -345
0 0 0 0 0 0 0 0 0 0 0 0 0 0 0 0 0 0 0 0 0 0 0 0 0 0 0 0 0 0 0 0 0 0 0 0 0 0 0 0 0 0 0 0 0 0 0 0 0 -222 -256 -275 -292 -163
0 0 0 0 0 0 0 0 0 0 0 0 0 0 0 0 0 0 0 0 0 0 0 0 0 0 0 0 0 0 0 0 0 0 0 0 0 0 0 0 0 0 0 0 0 0 0 0 0 0 0 0 0 0
0 0 0 0 0 0 0 0 0 0 0 0 0 0 0 0 0 0 0 0 0 0 0 0 0 0 0 0 0 0 0 0 0 0 0 0 0 0 0 0 0 0 0 0 0 0 0 0 0 0 0 0 0 0
0 0 0 0 0 0 0 0 0 0 0 0 0 0 -33 0 0 0 0 0 0 0 0 0 0 0 0 0 0 0 0 0 0 0 0 0 0 0 0 0 0 0 0 0 0 0 -47 0 0 0 0 0 0 0
0 0 0 0 0 0 0 0 0 0 0 0 0 0 -2 -13 -13 -17 0 0 0 0 0 0 0 0 0 0 -48 0 0 -9 -11 0 0 0 0 -98 -128 0 0 0 0 0 0 0 -164 -200 0 0 0 0 0 0
0 0 0 0 0 0 0 0 0 0 0 0 0 -16 -9 -10 -1 -1 0 0 0 0 0 0 0 0 0 0 -20 -48 -18 -20 0 -20 -17 -63 -177 -36 -43 -220 -226 0 0 0 0 0 -215 -8 0 0 0 0 0 0
0 0 0 0 0 0 0 0 0 0 0 0 -7 -3 -6 0 0 0 0 0 0 0 0 0 0 0 0 -2 -74 -18 -40 -5 -17 -12 -17 -100 -217 -250 -275 -296 -248 0 0 0 -289 -260 0 0 0 0 0 0 0 0
0 0 0 0 0 0 0 0 0 0 0 0 0 0 0 0 0 0 0 0 0 0 0 0 0 0 -7 -28 -59 -56 -27 -19 -30 -23 -64 -144 -209 -201 -220 0 -87 0 0 0 0 0 0 0 0 0 0 0 0 0
0 0 0 0 0 0 0 0 0 0 -24 0 0 -2 0 0 0 0 0 -27 -68 -103 0 -7 -24 -10 -29 -40 -23 -20 -22 -21 -48 -69 -102 -155 -175 -190 -109 -190 -68 0 0 0 0 0 0 0 0 0 0 0 0 0
0 0 0 0 0 0 0 0 0 0 0 0 0 0 0 0 0 -63 -72 -61 -111 -49 -28 -3 -20 -23 -67 -24 -24 -49 -24 -40 -76 -102 -139 -154 -146 -113 -127 -141 -166 0 0 0 0 0 0 0 0 0 0 0 0 0
0 0 0 0 0 -2 0 0 0 0 0 0 0 0 0 0 -58 -68 -59 -14 -46 -59 -59 -35 -97 -31 -26 0 -22 -43 -65 -104 -125 -103 -34 -33 -156 -122 -133 0 0 0 0 0 0 0 0 0 0 0 0 0 0 0
0 0 0 0 0 0 0 0 0 0 0 0 0 0 0 -32 0 0 0 -11 0 -68 -69 -60 -32 -32 -40 -68 -44 -53 -64 -56 -58 -100 -128 -95 -89 -111 0 0 0 0 0 0 0 0 0 0 0 0 0 0 0 0
0 0 0 0 0 0 0 0 0 0 0 0 0 0 0 0 0 0 0 0 0 -44 -28 -22 0 0 -42 -65 -84 -54 -51 -61 -70 0 0 -106 -110 0 0 0 0 0 0 0 0 0 0 0 0 0 0 0 0 0
0 0 0 0 0 0 0 0 0 0 0 0 0 0 0 0 0 0 0 0 0 -1 -19 -44 -44 -57 -110 -80 -74 -68 -57 -63 -61 -80 0 0 -107 -89 -97 -113 -1 0 -69 -72 -63 -63 -67 -65 0 0 0 -73 0 -49
0 0 0 0 0 0 0 0 0 0 0 0 0 0 0 0 0 0 0 0 0 0 0 -10 -41 -65 0 -54 -63 -52 -75 -76 -71 -21 -17 -70 -69 -57 -56 -64 -70 -49 -54 -62 -2 -77 -76 -80 0 -113 -98 -95 0 0
0 0 0 0 0 0 0 0 0 0 0 0 0 0 0 0 0 0 0 0 0 0 0 -35 -43 -55 -42 -48 -49 -74 -87 -43 0 0 0 -18 -50 -50 -50 -26 -65 -36 -31 -43 -89 -87 -86 -123 0 -136 -127 -142 0 0
0 0 0 0 0 0 0 0 0 0 0 0 0 0 0 0 0 0 0 0 0 0 0 -4 -30 -29 -46 -35 -29 -27 -34 -70 0 0 0 0 0 -26 -51 -48 -56 -53 -40 -52 -62 -61 -93 -124 0 0 0 0 -40 0
0 0 0 0 0 0 0 0 0 0 0 0 0 0 0 0 0 0 0 -9 -44 0 0 0 -48 -36 0 0 0 0 0 0 0 0 0 0 0 0 0 0 0 -69 -83 -67 -50 -68 -105 -161 -150 -150 0 0 0 -79
0 0 0 0 0 0 0 0 0 0 0 0 0 0 0 -2 -4 -8 -20 -58 0 0 0 0 0 0 0 0 0 -1 -13 -69 0 0 0 0 0 -7 0 -8 -27 -32 -113 -39 -81 -73 -99 -120 -109 -74 0 0 -91 -59
0 0 0 0 0 0 0 0 0 -4 -3 0 0 0 -1 0 0 -19 -49 -60 -74 -100 -115 -84 -40 -26 -19 -31 -59 -50 -41 -44 -21 -26 -50 -25 0 0 0 -28 -23 -39 -81 -94 -93 -66 -54 -69 -73 -38 0 0 0 -45
0 0 0 0 0 0 0 -1 -9 -14 0 -10 0 0 0 -13 -13 -35 -39 -37 -10 -97 -86 -83 -105 -78 -60 -55 -66 -50 -40 -50 -43 -51 -76 -14 -13 0 0 0 0 0 0 0 0 0 -12 0 0 0 0 0 0 -5
0 0 0 0 0 0 0 -10 -18 -35 -54 -53 -30 -34 -30 0 0 0 0 0 0 -84 -23 -67 -63 -73 0 0 0 0 0 -40 -12 -13 -17 0 0 0 0 0 0 0 0 0 0 0 0 0 0 0 0 0 0 0
0 0 0 0 0 0 0 0 0 0 0 0 0 0 0 0 0 -36 -27 -15 0 0 0 0 0 0 0 0 0 0 0 0 -54 -35 -22 -8 0 -48 -61 -70 0 0 0 0 0 0 0 0 0 0 0 0 0 0
0 0 0 0 0 0 0 0 0 0 0 0 0 0 0 0 -53 -70 0 0 -48 -48 -36 -26 0 0 0 0 0 0 -30 -53 -62 -63 -59 -63 -58 -57 -53 -51 -64 -43 0 0 0 0 0 0 0 0 -31 -64 -41 -55
0 0 0 0 0 0 0 0 0 -4 0 0 0 0 -30 -35 -25 0 -67 -65 -48 -28 0 0 0 0 0 0 0 -76 -65 -46 -59 -63 -55 -60 -41 0 0 -62 -69 -69 -74 -78 0 0 0 0 0 0 0 0 0 -25
0 0 0 0 0 -6 0 -8 -14 -7 -14 -16 -16 -31 -29 0 -7 -13 -82 -102 -69 -64 -59 -72 -79 -82 -74 -51 0 -80 -48 0 0 0 0 0 0 0 0 -54 -44 -50 -50 -60 -73 -10 -51 -38 -24 -17 -52 -48 -50 -45
Wind_Speed
27 20 19 16 17 20 24 22 18 17 16 17 16 18 20 19 20 20 25 22 24 26 32 29 28 28 26 23 23 23 23 21 21 22 21 20 20 19 20 19 19 21 20 22 20 25 29 15 19 21 19 18 17 17
24 21 18 16 14 16 15 18 17 15 17 20 18 13 20 18 21 19 25 21 20 26 27 27 34 36 30 28 23 21 20 20 19 20 20 18 20 17 14 21 21 21 15 18 14 22 18 17 12 18 15 13 15 13
23 22 19 16 16 13 10 13 14 14 17 19 18 13 20 18 21 21 26 25 24 27 34 34 34 33 36 37 26 22 19 17 16 16 16 18 20 16 18 20 18 20 15 20 18 12 9 14 15 15 7 14 13 7
22 21 17 13 13 11 9 12 13 13 15 19 17 14 19 20 23 23 25 22 23 23 26 25 23 30 26 25 23 21 19 14 15 16 18 18 20 16 18 19 19 17 12 16 16 18 17 7 3 22 18 10 4 4
22 21 16 13 11 10 7 10 8 8 15 15 15 17 20 20 23 25 28 28 28 22 22 28 31 27 28 30 26 24 23 22 21 20 20 19 14 14 17 17 19 12 13 12 13 10 10 9 8 6 4 4 6 4
21 20 15 13 11 6 5 6 3 7 15 18 22 21 22 19 20 22 24 23 28 20 22 22 22 24 22 21 19 19 13 20 22 20 21 19 16 13 16 19 19 9 8 7 15 16 13 16 14 4 0 2 2 3
20 17 15 11 5 2 1 1 1 11 20 24 22 20 19 18 21 23 21 18 13 18 21 23 22 20 17 13 16 15 16 19 21 22 23 20 15 11 18 17 20 16 11 8 9 14 14 15 12 5 0 2 5 7
18 15 13 6 2 2 4 4 6 26 27 9 14 17 17 19 23 25 25 26 18 19 19 22 22 20 16 19 18 18 19 21 23 22 19 20 16 17 22 17 13 14 15 13 9 10 12 9 8 7 4 2 3 4
16 12 9 5 2 4 6 2 21 11 1 6 10 13 16 20 21 19 15 10 15 20 21 22 21 18 18 18 17 18 18 18 19 22 21 18 20 21 19 15 12 9 9 9 11 12 12 10 9 7 5 3 1 2
13 9 6 8 2 4 9 8 1 1 6 4 14 17 20 20 17 11 16 16 17 21 21 23 21 21 18 17 15 14 16 17 19 21 19 24 26 24 25 17 7 4 7 6 9 12 12 10 7 6 4 3 2 3
12 7 5 11 4 5 2 5 4 2 2 16 19 20 17 15 15 16 17 17 18 21 21 23 22 22 17 16 16 15 15 15 18 19 18 21 24 23 23 14 11 10 4 7 10 10 8 6 2 1 1 2 3 3
10 5 9 13 3 2 6 10 7 13 15 19 17 15 15 15 16 18 19 17 17 20 17 18 20 18 17 14 15 15 15 14 18 16 18 21 20 24 20 15 11 9 7 9 9 8 9 8 5 4 4 2 3 5
10 6 14 16 10 8 12 11 15 15 13 15 13 15 17 18 21 21 23 20 19 16 14 13 14 16 16 15 14 15 17 17 17 17 18 19 18 16 11 6 6 6 5 6 8 8 8 7 6 5 5 6 6 6
12 14 21 20 18 9 14 8 14 18 18 16 16 19 20 20 22 19 21 19 18 17 17 12 8 12 13 14 14 16 17 17 20 21 20 15 14 11 8 8 6 8 9 7 6 6 6 7 8 9 7 6 7 8
15 18 23 26 22 13 15 9 15 18 18 17 16 20 22 21 21 20 21 22 21 18 10 7 9 11 12 14 15 14 16 18 18 19 18 13 11 8 7 6 7 7 8 10 8 6 6 6 7 8 7 7 8 9
19 23 28 26 11 12 10 19 21 21 20 20 19 19 19 18 18 16 13 14 13 10 9 10 11 13 16 14 14 15 15 18 18 15 11 10 9 7 4 5 6 6 8 11 12 5 6 6 7 8 8 8 9 9
26 25 17 15 12 11 13 21 20 22 21 19 19 20 21 19 16 13 11 13 14 12 12 13 16 15 14 14 13 14 15 13 10 9 8 8 7 5 5 7 9 8 8 5 4 4 7 8 9 9 9 8 9 9
24 20 16 15 15 17 19 19 20 20 21 21 20 18 17 16 14 14 15 12 13 11 13 14 12 13 13 12 12 13 11 10 9 9 10 10 10 9 10 8 7 6 5 5 5 7 7 8 8 8 8 8 9 9
21 17 16 19 22 18 17 19 18 17 19 19 20 18 16 15 13 13 11 11 9 10 7 13 13 13 13 12 9 8 9 10 10 12 13 13 10 8 8 8 7 7 7 6 6 6 6 6 6 7 7 7 7 9
17 18 20 21 19 16 14 15 18 17 18 19 19 18 14 13 14 13 12 13 13 14 15 15 15 13 10 11 9 9 11 9 7 11 11 12 10 9 8 8 7 6 7 6 6 6 6 6 7 9 8 8 8 10
22 22 21 20 17 16 18 19 23 21 20 20 19 18 17 16 16 16 16 15 14 15 15 16 14 9 11 10 7 9 7 6 8 10 10 9 9 9 9 9 8 7 7 6 7 8 8 7 9 9 11 13 9 8
22 20 18 16 17 17 17 20 21 19 19 19 17 15 16 18 18 17 15 17 17 16 16 16 9 6 9 9 8 9 8 10 11 12 9 10 8 7 8 9 8 8 7 5 7 8 9 10 12 10 8 9 10 8
19 19 17 15 17 18 19 18 20 18 18 19 18 18 18 19 19 17 16 16 16 16 16 12 8 9 9 11 9 9 9 10 11 11 11 13 12 11 10 12 7 6 6 6 5 5 5 6 6 7 8 11 9 5
14 15 17 17 18 18 18 18 17 15 15 15 17 18 18 15 14 13 16 16 18 16 14 8 5 5 8 7 6 8 11 14 15 15 14 15 15 11 8 6 3 3 4 4 4 3 2 4 6 6 8 8 7 4
17 16 16 16 17 14 14 14 14 15 16 15 15 15 12 13 13 14 15 16 18 17 11 7 5 5 6 11 15 15 14 11 12 11 12 10 10 11 12 10 5 7 4 3 3 3 3 2 2 3 4 5 5 6
15 16 16 15 14 14 12 12 13 12 10 12 15 13 12 12 12 12 14 16 13 8 4 5 6 8 9 11 13 9 7 12 11 12 11 11 11 12 11 10 9 8 6 5 4 5 6 5 5 4 4 3 6 8
12 13 15 16 16 15 12 11 8 9 11 12 12 11 11 12 13 14 13 12 9 9 9 8 8 8 7 7 10 9 10 11 12 13 14 12 11 9 9 7 6 6 7 8 8 8 10 9 7 5 5 5 3 3
14 13 12 14 10 11 10 11 13 14 15 16 16 14 13 14 14 14 12 11 13 13 11 10 9 8 8 10 12 13 12 15 16 15 16 16 17 16 14 13 12 10 9 9 10 10 10 10 8 8 7 8 10 10
13 14 14 10 10 10 11 11 12 13 15 13 13 15 15 16 16 17 19 20 19 17 15 14 13 14 14 14 14 15 17 16 15 18 17 14 12 17 16 16 16 16 15 13 12 11 11 11 13 15 15 14 14 15
14 13 13 12 12 11 13 13 12 13 14 14 15 17 18 17 19 20 19 17 15 13 13 13 11 10 14 22 25 23 20 19 19 20 18 5 13 14 15 17 18 18 18 18 16 15 15 15 15 14 14 14 13 11
13 11 10 11 10 12 13 14 15 16 16 16 16 16 16 16 16 15 16 15 16 18 18 19 22 26 25 24 24 24 21 21 21 19 17 15 12 12 11 12 13 14 15 15 15 15 14 13 12 11 9 8 8 7
11 11 10 12 13 15 15 13 14 12 12 12 11 12 14 14 14 15 15 13 11 10 9 16 21 25 26 24 23 23 22 14 14 11 11 11 10 10 9 9 10 10 10 10 9 10 9 8 8 7 6 4 4 2
12 14 15 16 16 18 20 19 16 13 15 16 17 16 14 15 15 18 13 14 12 11 11 13 16 14 12 15 17 17 10 12 14 16 16 13 8 10 10 10 8 7 7 7 8 6 7 8 5 4 3 4 4 4
Wind_Direction
319 327 324 323 320 312 301 300 303 303 304 304 308 296 276 269 269 276 264 266 260 262 257 256 255 253 259 264 261 273 264 274 274 269 273 278 283 286 289 291 293 291 291 291 298 297 290 307 312 299 311 320 330 338
324 326 328 325 323 318 312 303 303 302 300 293 300 300 274 268 263 273 263 270 266 261 263 264 255 252 255 257 269 276 270 272 280 276 278 281 280 290 300 289 288 289 310 307 302 306 317 312 319 293 315 332 324 340
325 325 327 327 320 322 316 310 304 298 297 293 292 294 270 264 259 267 261 264 266 265 262 253 247 249 244 241 255 262 275 281 285 287 282 285 282 287 286 287 293 294 307 305 316 327 322 310 301 285 359 334 331 7
327 325 330 329 324 323 318 312 303 297 295 291 288 285 264 262 257 262 259 265 260 266 261 259 265 251 253 248 250 253 270 293 298 296 287 286 283 287 289 297 289 307 316 312 316 316 322 41 178 285 309 338 20 59
326 326 330 327 327 323 322 318 312 297 293 289 286 272 257 260 256 257 256 254 248 258 263 256 265 252 249 243 248 250 260 269 275 278 279 279 300 297 295 300 295 309 322 314 322 349 338 344 180 158 345 63 95 82
327 327 328 323 321 317 321 325 332 306 286 277 266 257 250 259 256 255 253 253 242 254 262 261 264 256 254 247 248 253 268 271 272 276 276 283 296 299 292 289 299 322 337 7 327 328 335 326 325 323 340 359 60 45
328 331 331 330 329 329 344 16 349 296 273 257 253 246 249 258 249 243 250 261 245 248 258 257 252 255 254 249 257 270 265 272 275 273 273 283 291 289 292 300 293 304 308 313 325 336 329 322 334 2 74 32 7 357
330 335 334 343 25 94 122 112 315 240 220 273 253 244 253 254 250 244 243 233 242 249 259 251 248 251 258 250 256 269 271 275 271 270 278 278 284 290 287 301 307 311 317 326 334 328 332 345 347 354 24 42 1 359
332 341 335 331 29 86 108 15 251 261 357 261 252 251 252 242 240 243 258 254 243 252 251 248 244 246 259 256 268 273 277 279 281 272 273 281 281 281 291 296 295 301 313 322 326 325 328 335 337 339 334 327 337 351
333 342 328 300 355 88 122 286 44 197 75 260 244 241 235 235 246 239 247 249 252 252 256 251 251 249 260 260 271 280 278 278 281 278 286 274 276 284 287 294 284 264 312 330 323 318 328 332 331 327 323 329 102 102
328 335 303 280 285 122 93 112 145 135 299 237 231 233 238 244 243 249 252 253 254 256 258 255 252 251 268 266 267 278 283 286 286 288 286 288 283 282 289 293 286 291 295 309 318 330 341 348 338 8 39 81 83 58
320 316 274 265 257 220 131 131 179 236 242 230 238 238 234 243 248 249 248 258 261 256 266 260 253 255 268 279 279 279 286 295 291 304 294 287 294 289 290 291 293 288 300 313 327 346 355 3 23 62 78 43 10 353
306 274 257 249 250 244 138 141 223 235 235 237 246 242 238 244 243 244 239 248 255 266 271 272 261 257 266 279 284 283 282 286 301 297 297 300 307 311 324 334 321 309 319 332 335 347 5 22 34 42 22 353 348 358
282 255 240 235 237 151 140 179 224 227 235 247 247 236 238 243 244 247 241 247 256 268 277 275 274 269 271 276 288 285 290 294 287 289 296 308 312 323 341 333 338 327 324 342 359 15 18 360 353 351 1 14 2 355
255 240 230 226 224 144 141 200 225 233 234 236 245 239 241 247 251 253 251 257 261 280 282 281 283 274 280 280 288 295 290 289 295 297 300 302 311 335 348 357 358 352 344 343 346 8 16 21 15 9 5 5 6 8
238 226 224 219 176 153 161 211 222 225 233 235 245 244 243 249 253 256 261 267 279 282 282 286 285 274 272 287 296 288 288 290 296 308 314 315 324 341 20 15 7 9 356 323 304 355 20 13 22 11 11 0 1 4
215 223 212 183 168 167 200 215 222 224 235 241 241 240 240 247 252 263 270 270 269 276 271 273 263 269 285 288 292 299 295 302 317 329 338 338 355 10 356 341 338 337 343 11 64 23 2 11 26 31 34 32 26 21
219 204 174 168 180 199 213 223 226 234 235 238 235 238 248 254 260 259 258 272 266 274 272 270 284 287 294 299 298 294 295 311 328 341 338 339 335 331 331 340 348 3 56 54 49 32 44 45 33 28 25 25 12 9
198 182 161 184 201 212 223 228 239 244 244 240 238 247 252 253 258 260 273 282 302 298 312 289 297 289 289 294 311 315 314 317 327 328 338 337 340 358 9 14 35 58 63 48 44 47 36 40 37 31 25 22 10 359
175 178 190 198 207 220 236 241 233 235 231 231 233 236 246 257 262 275 285 286 283 281 283 283 287 296 304 291 309 309 308 324 341 337 344 1 17 41 51 40 30 20 14 34 40 29 24 15 355 350 360 0 351 349
179 190 195 206 219 223 221 219 214 222 222 225 230 235 242 253 261 268 274 287 291 289 292 291 293 296 296 304 325 320 330 351 347 351 8 30 46 49 40 28 23 7 21 37 21 6 3 351 341 336 333 333 335 340
186 196 207 222 215 222 224 220 219 226 228 231 243 255 257 257 262 275 285 287 287 287 293 292 296 299 305 314 325 327 320 316 334 340 2 5 16 13 4 2 4 347 354 14 12 3 357 358 357 11 11 360 352 349
190 195 206 218 219 222 221 226 217 225 228 234 244 250 254 256 264 283 297 297 291 281 278 299 303 286 295 292 299 309 327 346 351 349 343 337 332 335 344 343 360 5 5 4 16 32 53 44 52 57 27 11 16 32
210 213 213 218 220 221 221 231 242 252 266 263 259 262 267 283 300 308 299 302 281 275 285 293 327 335 314 329 329 335 326 320 321 330 333 330 333 345 4 18 39 112 132 71 68 139 60 43 25 40 21 18 25 22
204 215 220 228 231 245 251 255 260 263 255 257 260 276 286 284 307 310 290 281 271 269 287 319 325 332 329 314 304 306 317 337 342 341 335 352 4 356 352 355 46 150 128 158 188 197 183 95 66 54 55 72 53 86
219 227 234 240 244 252 265 265 266 271 278 281 277 286 288 295 307 308 286 278 281 309 352 1 348 323 317 322 322 327 358 341 3 5 15 20 25 19 29 35 38 46 57 84 87 100 130 127 106 98 90 77 24 357
250 245 230 229 228 237 259 269 277 280 280 285 287 289 294 290 287 287 290 310 328 304 302 332 7 16 31 2 344 354 346 12 25 359 348 7 57 99 75 86 119 101 67 81 87 95 125 128 119 76 54 58 74 76
226 231 232 231 249 251 257 254 249 249 250 251 252 269 282 287 286 283 303 312 300 303 321 330 338 348 354 340 327 323 331 308 307 301 311 315 318 342 32 66 64 75 69 68 82 82 64 62 83 91 92 78 85 85
221 226 227 249 253 260 261 264 267 261 262 277 280 274 278 279 282 283 278 282 285 292 299 304 305 301 302 304 308 298 274 284 286 260 266 285 342 73 75 63 61 68 81 92 99 100 90 95 107 108 107 107 111 106
222 242 244 245 254 268 260 265 286 278 280 282 283 278 281 287 282 282 280 298 310 319 311 309 309 311 296 256 239 238 250 251 226 215 215 61 76 88 78 69 76 75 72 73 74 71 77 86 91 93 93 98 101 97
238 250 261 265 279 258 254 262 268 278 284 283 291 296 297 303 302 308 306 310 302 288 278 235 236 215 216 216 216 212 216 211 200 182 158 140 82 95 106 87 91 81 72 70 72 78 83 83 87 84 81 95 92 88
262 273 280 266 260 251 255 281 287 299 316 326 320 305 278 265 250 217 223 230 250 264 251 208 196 190 192 204 212 207 207 104 111 63 65 101 76 64 72 96 102 94 91 88 83 74 72 77 84 78 76 126 157 136
229 222 206 199 195 185 171 169 173 190 187 176 167 176 210 186 219 203 269 245 249 251 246 233 223 239 258 252 238 172 322 321 329 340 339 355 37 33 38 41 64 88 98 95 59 76 86 83 103 134 76 108 110 87